View from above orbital plane
|
View from above satellite
|
Ground track
|
The orbit data is extracted from the following two-line orbital elements,
1 19275U 88056B 22176.93694062 .00000223 00000-0 24603-4 0 9994
2 19275 82.5161 53.5650 0018468 284.6874 75.2294 14.82932069814050
Epoch (UTC): | 25 June 2022 22:29:11 |
Eccentricity: | 0.0018468 |
inclination: | 82.5161° |
perigee height: | 607 km |
apogee height: | 633 km |
right ascension of ascending node: | 53.5650° |
argument of perigee: | 284.6874° |
revolutions per day: | 14.82932069 |
mean anomaly at epoch: | 75.2294° |
orbit number at epoch: | 81405 |
The dashed part of the orbit path shows where the satellite is in the earth's shadow,
|
|